Find Starlink 31758

NORAD ID: 59621 Int'l Des: 2024-080 Owner: SPXS Country: US Constellation: starlink operational
LEOCIRCULAR

現在のビュー

3D地球を読み込み中...

About Starlink 31758

Starlink 31758 (NORAD 59621) is a starlink constellation satellite (v2 mini) launched Apr 28, 2024 by SPXS of US. It operates in LEO, CIRCULAR orbit with a mass of 730.00 kg.

Starlink 31758について

説明を読み込み中...

次回通過

Passes for default location (London). Set your location on the main map for personalized predictions.

高度履歴

Loading altitude history...

軌道要素

1 59621U 24080W 26171.06325285 .00000759 00000-0 37129-4 0 9992
2 59621 43.0037 175.9246 0001301 187.5464 172.5368 15.27563918120233
Epoch: Jun 20, 2026 • Age: 39 hours

現在のステータス

高度 484.1 km
速度 7.62 km/s
衛星直下点 -2.60°S, 3.02°E
打ち上げ日 Apr 28, 2024
運用期間 2.1 years
タイプ internet

技術仕様

分類 Payload
質量 730.00 kg
乾燥質量 700.00 kg
総質量 730.00 kg
長さ 0.30 m
直径 4.10 m
スパン 29.00 m
形状 Box + pan
製造者 SPXS
バスタイプ Starlink V2M
フェーズステータス In Orbit
所有者/国 SPXS/US

Most Searched